Find Geely Xingzuo 04 zu 05 xing

NORAD ID: 65123 Int'l Des: 2025-170 Owner: GEESP Country: CN Constellation: geesatcom operational
LEOCIRCULAR

Live Position

Loading 3D Globe...

About Geely Xingzuo 04 zu 05 xing

Description loading...

Upcoming Passes

Passes for default location (London). Set your location on the main map for personalized predictions.

Altitude History

Loading altitude history...

Two-Line Element Set

1 65123U 25170E 26106.27532872 .00001039 00000-0 15782-3 0 9992
2 65123 49.9956 54.7779 0007635 81.8906 278.2897 14.81930489 37867
Epoch: Apr 16, 2026 • Age: 7 hours

Current Status

Altitude 633.4 km
Velocity 7.54 km/s
Sub-Earth Point -24.64°S, 159.42°W
Launch Date Aug 8, 2025
Age 0.6 years
Type other

Technical Details

Classification Payload
Mass 130.00 kg
Dry Mass 130.00 kg
Total Mass 130.00 kg
Length 1.00 m
Diameter 0.50 m
Span 2.00 m
Shape Box + 2 pan
Manufacturer GWCG
Bus Type GPS100
Phase Status In Orbit
Owner/State GEESP/CN

Most Searched